Location: Belfast
(54.5830°N, 5.9330°W)
Time: 07:34:44
(UTC+01:00)

Coronas F rocket - Visible Passes

Search period start: 21 April 2015 00:00
Search period end: 01 May 2015 00:00
Orbit: 371 x 387 km, 82.5° (Epoch: 19 April)

Date Brightness Start Highest point End Pass type
(mag) Time Alt. Az. Time Alt. Az. Time Alt. Az.
21 Apr 3.4 00:32:00 10° NNW 00:34:00 28° WNW 00:34:00 28° WNW visible
21 Apr 2.0 23:34:16 10° N 23:36:59 53° NE 23:36:59 53° NE visible
22 Apr 4.5 01:08:44 10° WNW 01:09:11 11° WNW 01:09:11 11° WNW visible
22 Apr 3.6 22:37:22 10° NNE 22:39:24 16° ENE 22:39:57 16° ENE visible
23 Apr 2.8 00:09:37 10° NNW 00:12:09 36° WNW 00:12:09 36° WNW visible
23 Apr 2.0 23:11:54 10° N 23:14:54 47° ENE 23:15:04 46° E visible
24 Apr 4.3 00:45:53 10° WNW 00:47:16 13° W 00:47:16 13° W visible
24 Apr 3.8 22:15:04 10° NNE 22:16:51 14° ENE 22:17:57 13° E visible
24 Apr 2.3 23:47:04 10° NNW 23:50:02 46° W 23:50:09 45° WSW visible
25 Apr 2.3 22:49:21 10° N 22:52:16 39° ENE 22:53:00 33° ESE visible
26 Apr 4.1 00:23:00 10° NW 00:24:55 15° W 00:25:11 15° W visible
26 Apr 4.0 21:52:40 10° NE 21:54:05 13° ENE 21:55:36 10° E visible
26 Apr 2.0 23:24:20 10° NNW 23:27:22 56° W 23:28:01 44° SW visible
27 Apr 2.6 22:26:38 10° N 22:29:28 33° ENE 22:30:48 23° ESE visible
27 Apr 3.9 23:59:59 10° NW 00:02:10 18° W 00:02:59 16° WSW visible
28 Apr 4.0 21:30:15 10° NE 21:31:08 11° ENE 21:32:08 10° E visible
28 Apr 1.8 23:01:26 10° NNW 23:04:29 69° W 23:05:44 32° S visible
29 Apr 2.8 22:03:44 10° N 22:06:27 28° ENE 22:08:28 15° SE visible
29 Apr 3.8 23:36:50 10° NW 23:39:14 21° W 23:40:38 15° SW visible
30 Apr 1.6 22:38:20 10° NNW 22:41:26 84° W 22:43:20 21° S visible
